| time (UTC) | temp F | wind direction | speed MPH | gust MPH | rain 1hr in | rain 24hr in | rain mn in | humidity % | barometer mb |
| 20260506050106 | 46 | 360 | 3.0 | 7.0 | 0.00 | 0.00 | 0.00 | 79 | 1011.2 |
| 20260506044556 | 43 | 360 | 1.0 | 5.0 | 0.00 | 0.00 | 0.00 | 82 | 1011.2 |
| 20260506043055 | 41 | 360 | 3.0 | 7.0 | 0.00 | 0.00 | 0.00 | 84 | 1011.2 |
| 20260506041559 | 40 | 360 | 4.0 | 7.0 | 0.00 | 0.00 | 0.00 | 84 | 1011.1 |
| 20260506040105 | 40 | 360 | 4.0 | 7.0 | 0.00 | 0.00 | 0.00 | 84 | 1011.1 |
| 20260506034550 | 40 | 360 | 3.0 | 7.0 | 0.00 | 0.00 | 0.00 | 83 | 1011.1 |
| 20260506033048 | 40 | 360 | 3.0 | 6.0 | 0.00 | 0.00 | 0.00 | 83 | 1011.1 |
| 20260506031546 | 40 | 360 | 3.0 | 7.0 | 0.00 | 0.00 | 0.00 | 82 | 1011.1 |
| 20260506030058 | 40 | 360 | 3.0 | 7.0 | 0.00 | 0.00 | 0.00 | 82 | 1011.3 |
| 20260506024552 | 41 | 360 | 3.0 | 8.0 | 0.00 | 0.00 | 0.00 | 81 | 1011.3 |
| 20260506023038 | 41 | 360 | 3.0 | 6.0 | 0.00 | 0.00 | 0.00 | 81 | 1011.6 |
| 20260506021537 | 41 | 360 | 2.0 | 6.0 | 0.00 | 0.00 | 0.00 | 80 | 1011.8 |
| 20260506020034 | 41 | 360 | 3.0 | 6.0 | 0.00 | 0.00 | 0.00 | 81 | 1011.7 |
| 20260506014534 | 42 | 360 | 4.0 | 8.0 | 0.00 | 0.00 | 0.00 | 81 | 1011.7 |
| 20260506013028 | 42 | 360 | 3.0 | 9.0 | 0.00 | 0.00 | 0.00 | 79 | 1011.7 |
| 20260506011534 | 43 | 360 | 4.0 | 8.0 | 0.00 | 0.00 | 0.00 | 77 | 1011.6 |
| 20260506010022 | 44 | 360 | 3.0 | 9.0 | 0.00 | 0.00 | 0.00 | 74 | 1011.6 |
| 20260506004533 | 45 | 360 | 6.0 | 10.0 | 0.00 | 0.00 | 0.00 | 72 | 1011.4 |
| 20260506003023 | 45 | 360 | 5.0 | 9.0 | 0.00 | 0.00 | 0.00 | 69 | 1011.3 |
| 20260506001518 | 45 | 360 | 4.0 | 8.0 | 0.00 | 0.00 | 0.00 | 68 | 1011.3 |
| 20260506000018 | 45 | 360 | 3.0 | 8.0 | 0.00 | 0.00 | 0.00 | 69 | 1011.2 |
| 20260505234511 | 45 | 360 | 3.0 | 8.0 | 0.00 | 0.00 | 0.00 | 70 | 1011.4 |
| 20260505233009 | 46 | 355 | 3.0 | 8.0 | 0.00 | 0.00 | 0.00 | 71 | 1011.5 |
| 20260505231507 | 45 | 360 | 5.0 | 9.0 | 0.00 | 0.00 | 0.00 | 73 | 1011.3 |
| 20260505230006 | 45 | 360 | 3.0 | 8.0 | 0.00 | 0.00 | 0.00 | 75 | 1011.3 |
| 20260505224503 | 45 | 360 | 3.0 | 9.0 | 0.00 | 0.00 | 0.00 | 77 | 1011.4 |
| 20260505223102 | 45 | 360 | 2.0 | 9.0 | 0.00 | 0.00 | 0.00 | 78 | 1011.5 |
| 20260505221603 | 45 | 360 | 2.0 | 6.0 | 0.00 | 0.00 | 0.00 | 80 | 1011.7 |
| 20260505220054 | 45 | 360 | 2.0 | 6.0 | 0.00 | 0.00 | 0.00 | 83 | 1011.7 |
| 20260505214554 | 45 | 360 | 3.0 | 6.0 | 0.00 | 0.00 | 0.00 | 83 | 1011.7 |
| 20260505213057 | 45 | 360 | 3.0 | 6.0 | 0.00 | 0.00 | 0.00 | 84 | 1011.6 |
| 20260505211552 | 45 | 360 | 3.0 | 6.0 | 0.00 | 0.00 | 0.00 | 84 | 1011.7 |
| 20260505210051 | 45 | 360 | 1.0 | 5.0 | 0.00 | 0.00 | 0.00 | 84 | 1011.7 |
| 20260505204551 | 45 | 360 | 2.0 | 4.0 | 0.00 | 0.00 | 0.00 | 85 | 1011.6 |
| 20260505203053 | 45 | 360 | 0.0 | 4.0 | 0.00 | 0.00 | 0.00 | 86 | 1011.7 |
| 20260505201552 | 45 | 360 | 0.0 | 5.0 | 0.00 | 0.00 | 0.00 | 85 | 1011.7 |
| 20260505200048 | 45 | 360 | 1.0 | 5.0 | 0.00 | 0.00 | 0.00 | 86 | 1011.5 |
| 20260505194555 | 46 | 360 | 3.0 | 7.0 | 0.00 | 0.00 | 0.00 | 85 | 1011.6 |
| 20260505193102 | 46 | 360 | 2.0 | 6.0 | 0.00 | 0.00 | 0.00 | 85 | 1011.5 |
| 20260505191543 | 47 | 360 | 2.0 | 6.0 | 0.00 | 0.00 | 0.00 | 84 | 1011.4 |
| 20260505190042 | 48 | 360 | 2.0 | 6.0 | 0.00 | 0.00 | 0.00 | 82 | 1011.4 |
| 20260505184540 | 49 | 360 | 1.0 | 5.0 | 0.00 | 0.00 | 0.00 | 81 | 1011.3 |
| 20260505183040 | 51 | 360 | 2.0 | 7.0 | 0.00 | 0.00 | 0.00 | 79 | 1011.3 |
| 20260505181540 | 52 | 360 | 1.0 | 7.0 | 0.00 | 0.00 | 0.00 | 78 | 1011.3 |
| 20260505180043 | 52 | 360 | 4.0 | 8.0 | 0.00 | 0.00 | 0.00 | 76 | 1011.3 |
| 20260505174539 | 53 | 360 | 2.0 | 9.0 | 0.00 | 0.00 | 0.00 | 75 | 1011.3 |
| 20260505173036 | 53 | 360 | 4.0 | 10.0 | 0.00 | 0.00 | 0.00 | 74 | 1011.4 |
| 20260505171545 | 53 | 360 | 4.0 | 9.0 | 0.00 | 0.00 | 0.00 | 71 | 1011.3 |
| 20260505170038 | 53 | 360 | 4.0 | 11.0 | 0.00 | 0.00 | 0.00 | 71 | 1011.3 |
| 20260505164539 | 53 | 360 | 4.0 | 13.0 | 0.00 | 0.00 | 0.00 | 71 | 1011.4 |
| 20260505163040 | 52 | 360 | 8.0 | 14.0 | 0.00 | 0.00 | 0.00 | 69 | 1011.4 |
| 20260505161533 | 52 | 360 | 8.0 | 14.0 | 0.00 | 0.00 | 0.00 | 70 | 1011.5 |
| 20260505153037 | 51 | 360 | 14.0 | 17.0 | 0.00 | 0.00 | 0.00 | 55 | 1011.5 |
| 20260505151529 | 52 | 360 | 14.0 | 16.0 | 0.00 | 0.00 | 0.00 | 61 | 1011.6 |
| 20260505130116 | 53 | 360 | 10.0 | 14.0 | 0.00 | 0.00 | 0.00 | 59 | 1011.7 |
| 20260505124507 | 52 | 360 | 11.0 | 16.0 | 0.00 | 0.00 | 0.00 | 61 | 1011.6 |
| 20260505123005 | 53 | 360 | 9.0 | 15.0 | 0.00 | 0.00 | 0.00 | 66 | 1011.7 |
| 20260505121504 | 53 | 360 | 9.0 | 14.0 | 0.00 | 0.00 | 0.00 | 67 | 1011.7 |
| 20260505120002 | 52 | 360 | 9.0 | 15.0 | 0.00 | 0.00 | 0.00 | 68 | 1011.7 |
| 20260505114502 | 52 | 360 | 9.0 | 16.0 | 0.00 | 0.00 | 0.00 | 66 | 1011.7 |
| 20260505113108 | 52 | 360 | 10.0 | 15.0 | 0.00 | 0.00 | 0.00 | 65 | 1011.7 |
| 20260505111602 | 52 | 360 | 11.0 | 16.0 | 0.00 | 0.00 | 0.00 | 67 | 1011.7 |
| 20260505110108 | 52 | 360 | 8.0 | 14.0 | 0.00 | 0.00 | 0.00 | 67 | 1011.7 |
| 20260505101550 | 52 | 360 | 7.0 | 12.0 | 0.00 | 0.00 | 0.00 | 68 | 1011.7 |
| 20260505100047 | 51 | 360 | 8.0 | 13.0 | 0.00 | 0.00 | 0.00 | 67 | 1011.8 |
| 20260505094548 | 51 | 360 | 8.0 | 14.0 | 0.00 | 0.00 | 0.00 | 70 | 1011.7 |
| 20260505093043 | 51 | 360 | 8.0 | 15.0 | 0.00 | 0.00 | 0.00 | 68 | 1011.7 |
| 20260505091551 | 51 | 360 | 9.0 | 15.0 | 0.00 | 0.00 | 0.00 | 71 | 1011.7 |
| 20260505090045 | 51 | 360 | 9.0 | 15.0 | 0.00 | 0.00 | 0.00 | 73 | 1011.7 |
| 20260505084558 | 51 | 360 | 10.0 | 16.0 | 0.00 | 0.00 | 0.00 | 74 | 1011.5 |
| 20260505083057 | 51 | 360 | 12.0 | 16.0 | 0.00 | 0.00 | 0.00 | 75 | 1011.5 |
| 20260505081552 | 51 | 360 | 9.0 | 14.0 | 0.00 | 0.00 | 0.00 | 77 | 1011.3 |
| 20260505080044 | 51 | 360 | 12.0 | 16.0 | 0.00 | 0.00 | 0.00 | 76 | 1011.3 |
| 20260505074534 | 51 | 360 | 8.0 | 15.0 | 0.00 | 0.00 | 0.00 | 78 | 1011.3 |
| 20260505073047 | 50 | 360 | 12.0 | 16.0 | 0.00 | 0.00 | 0.00 | 78 | 1011.2 |
| 20260505071543 | 50 | 360 | 12.0 | 17.0 | 0.00 | 0.00 | 0.00 | 80 | 1011.2 |
| 20260505070040 | 49 | 360 | 9.0 | 15.0 | 0.00 | 0.00 | 0.00 | 81 | 1011.1 |
| 20260505064535 | 50 | 360 | 9.0 | 17.0 | 0.00 | 0.00 | 0.00 | 80 | 1011.0 |
| 20260505063037 | 50 | 360 | 9.0 | 14.0 | 0.00 | 0.00 | 0.00 | 77 | 1011.0 |
| 20260505061531 | 49 | 360 | 8.0 | 13.0 | 0.00 | 0.00 | 0.00 | 79 | 1011.0 |
| 20260505060050 | 49 | 360 | 9.0 | 16.0 | 0.00 | 0.00 | 0.00 | 82 | 1010.9 |